Home   Weather   Chesterfield   Past weeks
Flag for United Kingdom

Past Weather in Chesterfield, England, United Kingdom — July 2018

Now
42 °F

Smoke.


Feels Like: 33 °F
Forecast: 49 / 38 °F
Wind: 17 mph from Southwest

Location: Nottingham Weather Centre

Current Time: Feb 21, 2020 at 10:25:11 am

Latest Report: Feb 21, 2020 at 9:00 am


Visibility: 5 mi

Pressure: 30.05 "Hg

Humidity: 86%

Dew Point: 38 °F

Location of ChesterfieldLocation

July 2018 Weather in Chesterfield — Graph

°F

High & Low Weather Summary for July 2018

 TemperatureHumidityPressure
High87 °F (Jul 26, 7:00 pm)98% (Jul 6, 5:00 am)30.36 "Hg (Jul 6, 5:00 am)
Low49 °F (Jul 4, 4:00 am)28% (Jul 2, 3:00 pm)29.47 "Hg (Jul 29, 1:00 pm)
Average66 °F65%30.02 "Hg
* Reported Jul 1 12:00 am — Jul 31 11:00 pm, Chesterfield. Weather by CustomWeather, © 2020

Note: Actual official high and low records may vary slightly from our data, if they occured in-between our weather recording intervals... More about our weather records

Chesterfield Weather History for July 1, 2018

Scroll right to see more
 ConditionsComfort  
Time TempWeatherWind HumidityBarometerVisibility
12:00 am
Sun, Jul 1
58 °FCool.8 mph77%30.04 "Hg34 mi
1:00 am56 °FCool.6 mph84%30.04 "Hg31 mi
2:00 am54 °FCool.6 mph90%30.03 "Hg25 mi
3:00 am53 °FCool.5 mph94%30.03 "Hg14 mi
4:00 am53 °FCool.6 mph95%30.03 "Hg11 mi
5:00 am53 °FCool.5 mph96%30.02 "Hg7 mi
6:00 am54 °FCool.6 mph95%30.02 "Hg10 mi
7:00 am56 °FCool.7 mph89%30.02 "Hg16 mi
8:00 am61 °FCool.7 mph81%30.01 "Hg22 mi
9:00 am65 °FMild.8 mph73%30.01 "Hg25 mi
11:00 am73 °FMild.9 mph54%30.00 "Hg31 mi
12:00 pm76 °FMild.12 mph46%29.99 "Hg31 mi
1:00 pm79 °FPleasantly warm.12 mph35%29.98 "Hg37 mi
2:00 pm81 °FPleasantly warm.12 mph31%29.97 "Hg47 mi
3:00 pm81 °FPleasantly warm.12 mph32%29.97 "Hg47 mi
4:00 pm80 °FPleasantly warm.10 mph31%29.97 "Hg47 mi
5:00 pm79 °FPleasantly warm.9 mph35%29.97 "Hg40 mi
6:00 pm78 °FPleasantly warm.12 mph39%29.98 "Hg40 mi
7:00 pm75 °FMild.10 mph42%29.98 "Hg37 mi
8:00 pm72 °FMild.12 mph46%30.00 "Hg37 mi
9:00 pm69 °FMild.10 mph51%30.01 "Hg40 mi
10:00 pm65 °FMild.7 mph60%30.03 "Hg37 mi
11:00 pm62 °FCool.6 mph66%30.05 "Hg34 mi
Weather by CustomWeather, © 2020

See weather overview

Advertising